Wendover, UT

3:18 AM MDT on August 26, 2016 (GMT -0600)
Wendover

Weather History for KENV - August, 2014

Change the Weather History Date:

Tuesday, August 12, 2014

  Actual Average Record
Temperature  
Mean Temperature 75 °F -  
Max Temperature 82 °F 89 °F 101 °F (1958)
Min Temperature 68 °F 66 °F 56 °F (1953)
Cooling Degree Days 10    
Growing Degree Days 25 (Base 50)    
Moisture  
Dew Point 51 °F    
Average Humidity 43    
Maximum Humidity 68    
Minimum Humidity 25    
Precipitation  
Precipitation 0.00 in - - ()
Sea Level Pressure  
Sea Level Pressure 30.14 in    
Wind  
Wind Speed 9 mph (ESE)    
Max Wind Speed 22 mph    
Max Gust Speed 29 mph    
Visibility 10 miles    
Events Thunderstorm    
Averages and records for this station are not official NWS values.
T = Trace of Precipitation, MM = Missing Value Source: NWS Daily Summary

Daily Weather History Graph

Daily Weather History Graph

Search for Another Location

Airport or City:

Trip Planner

Search our weather history database for the weather conditions in past years. The results will help you decide how hot, cold, wet, or windy it might be!

Date:

Astronomy

Aug. 12, 2014 Rise Set
Actual Time 6:43 AM MDT 8:38 PM MDT
Civil Twilight 6:13 AM MDT 9:07 PM MDT
Nautical Twilight 5:37 AM MDT 9:43 PM MDT
Astronomical Twilight 4:58 AM MDT 10:22 PM MDT
Moon 9:46 PM MDT (8/12) 9:06 AM MDT (8/12)
Length of Visible Light 14h 53m
Length of Day
13h 54m
Waning Gibbous, 94% of the Moon is Illuminated
Aug 12
Waning Gibbous
Aug 17
Last Quarter
Aug 25
New
Sep 2
First Quarter
Sep 8
Full

Hourly Weather History & Observations

Time (MDT) Temp. Dew Point Humidity Pressure Visibility Wind Dir Wind Speed Gust Speed Precip Events Conditions
12:15 AM 78.8 °F 48.2 °F 34% 30.15 in 10.0 mi NW 15.0 mph 25.3 mph N/A   Mostly Cloudy
12:35 AM 78.8 °F 46.4 °F 32% 30.14 in 10.0 mi NNW 12.7 mph - N/A   Scattered Clouds
12:55 AM 78.8 °F 48.2 °F 34% 30.17 in 10.0 mi West 12.7 mph - N/A   Mostly Cloudy
1:15 AM 75.2 °F 48.2 °F 38% 30.18 in 10.0 mi West 21.9 mph 27.6 mph N/A   Overcast
1:35 AM 73.4 °F 51.8 °F 47% 30.18 in 10.0 mi West 13.8 mph - N/A   Overcast
1:55 AM 75.2 °F 48.2 °F 38% 30.18 in 10.0 mi North 8.1 mph - N/A   Partly Cloudy
2:15 AM 75.2 °F 46.4 °F 36% 30.17 in 10.0 mi WSW 9.2 mph - N/A   Clear
2:35 AM 75.2 °F 46.4 °F 36% 30.17 in 10.0 mi WSW 9.2 mph - N/A   Clear
2:55 AM 75.2 °F 46.4 °F 36% 30.17 in 10.0 mi West 4.6 mph - N/A   Clear
3:35 AM 75.2 °F 48.2 °F 38% 30.15 in 10.0 mi Calm Calm - N/A   Clear
3:55 AM 73.4 °F 50.0 °F 44% 30.15 in 10.0 mi SSE 5.8 mph - N/A   Clear
4:15 AM 73.4 °F 48.2 °F 41% 30.15 in 10.0 mi NE 5.8 mph - N/A   Scattered Clouds
4:35 AM 73.4 °F 48.2 °F 41% 30.14 in 10.0 mi NE 10.4 mph - N/A   Partly Cloudy
4:55 AM 71.6 °F 51.8 °F 50% 30.14 in 10.0 mi NNE 11.5 mph - N/A   Partly Cloudy
5:15 AM 73.4 °F 51.8 °F 47% 30.14 in 10.0 mi ENE 8.1 mph - N/A   Scattered Clouds
5:35 AM 71.6 °F 51.8 °F 50% 30.14 in 10.0 mi ESE 3.5 mph - N/A   Scattered Clouds
5:55 AM 71.6 °F 51.8 °F 50% 30.15 in 10.0 mi SSW 6.9 mph - N/A   Scattered Clouds
6:15 AM 71.6 °F 51.8 °F 50% 30.16 in 10.0 mi SE 4.6 mph - N/A   Partly Cloudy
6:35 AM 69.8 °F 50.0 °F 49% 30.16 in 10.0 mi SE 4.6 mph - N/A   Clear
6:55 AM 69.8 °F 51.8 °F 53% 30.16 in 10.0 mi SW 5.8 mph - N/A   Clear
7:15 AM 69.8 °F 51.8 °F 53% 30.16 in 10.0 mi West 5.8 mph - N/A   Clear
7:35 AM 68.0 °F 51.8 °F 56% 30.17 in 10.0 mi WNW 5.8 mph - N/A   Clear
7:55 AM 71.6 °F 50.0 °F 46% 30.16 in 10.0 mi NW 4.6 mph - N/A   Clear
8:15 AM 73.4 °F 48.2 °F 41% 30.17 in 10.0 mi WSW 3.5 mph - N/A   Clear
8:35 AM 73.4 °F 48.2 °F 41% 30.17 in 10.0 mi Calm Calm - N/A   Clear
8:55 AM 73.4 °F 50.0 °F 44% 30.17 in 10.0 mi East 6.9 mph - N/A   Clear
9:15 AM 73.4 °F 50.0 °F 44% 30.18 in 10.0 mi East 4.6 mph - N/A   Clear
9:35 AM 73.4 °F 50.0 °F 44% 30.18 in 10.0 mi East 6.9 mph - N/A   Partly Cloudy
9:55 AM 75.2 °F 51.8 °F 44% 30.18 in 10.0 mi East 10.4 mph - N/A   Partly Cloudy
11:35 AM 80.6 °F 48.2 °F 32% 30.17 in 10.0 mi East 5.8 mph - N/A   Clear
11:55 AM 80.6 °F 50.0 °F 34% 30.17 in 10.0 mi East 9.2 mph - N/A   Clear
12:15 PM 82.4 °F 50.0 °F 32% 30.17 in 10.0 mi East 8.1 mph - N/A   Clear
12:35 PM 82.4 °F 48.2 °F 30% 30.16 in 10.0 mi East 9.2 mph - N/A   Clear
12:55 PM 82.4 °F 48.2 °F 30% 30.15 in 10.0 mi ESE 6.9 mph - N/A   Scattered Clouds
1:15 PM 82.4 °F 50.0 °F 32% 30.14 in 10.0 mi East 6.9 mph - N/A   Mostly Cloudy
1:35 PM 82.4 °F 48.2 °F 30% 30.13 in 10.0 mi East 6.9 mph - N/A   Partly Cloudy
1:55 PM 82.4 °F 48.2 °F 30% 30.13 in 10.0 mi East 8.1 mph - N/A   Clear
2:35 PM 82.4 °F 48.2 °F 30% 30.11 in 10.0 mi ENE 5.8 mph - N/A   Clear
2:55 PM 82.4 °F 48.2 °F 30% 30.11 in 10.0 mi ESE 5.8 mph - N/A   Clear
3:15 PM 82.4 °F 48.2 °F 30% 30.11 in 10.0 mi SSE 4.6 mph - N/A   Clear
3:35 PM 82.4 °F 48.2 °F 30% 30.12 in 10.0 mi WSW 5.8 mph - N/A   Scattered Clouds
3:55 PM 82.4 °F 48.2 °F 30% 30.09 in 10.0 mi SSE 16.1 mph 27.6 mph N/A Thunderstorm Overcast
4:15 PM 82.4 °F 42.8 °F 25% 30.11 in 10.0 mi South 20.7 mph 28.8 mph N/A Thunderstorm Scattered Clouds
4:35 PM 75.2 °F 53.6 °F 47% 30.09 in 10.0 mi SSE 15.0 mph - N/A   Clear
4:55 PM 75.2 °F 51.8 °F 44% 30.08 in 10.0 mi SSE 6.9 mph - N/A   Clear
5:15 PM 77.0 °F 51.8 °F 41% 30.08 in 10.0 mi SE 5.8 mph - N/A   Clear
5:55 PM 78.8 °F 53.6 °F 42% 30.09 in 10.0 mi SSW 8.1 mph - N/A   Clear
6:15 PM 77.0 °F 51.8 °F 41% 30.10 in 10.0 mi South 5.8 mph - N/A   Clear
6:35 PM 78.8 °F 51.8 °F 39% 30.11 in 10.0 mi Calm Calm - N/A   Clear
6:55 PM 78.8 °F 51.8 °F 39% 30.11 in 10.0 mi East 10.4 mph - N/A   Clear
7:15 PM 78.8 °F 53.6 °F 42% 30.11 in 10.0 mi East 19.6 mph 25.3 mph N/A   Mostly Cloudy
7:35 PM 73.4 °F 55.4 °F 53% 30.13 in 10.0 mi ESE 20.7 mph 27.6 mph N/A   Scattered Clouds
7:55 PM 73.4 °F 55.4 °F 53% 30.14 in 10.0 mi ESE 18.4 mph - N/A   Clear
8:15 PM 71.6 °F 55.4 °F 57% 30.13 in 10.0 mi ESE 18.4 mph - N/A   Partly Cloudy
8:55 PM 71.6 °F 55.4 °F 57% 30.15 in 10.0 mi ENE 11.5 mph - N/A Thunderstorm Overcast
9:15 PM 71.6 °F 55.4 °F 57% 30.15 in 10.0 mi ENE 9.2 mph - N/A   Overcast
9:35 PM 69.8 °F 57.2 °F 64% 30.14 in 10.0 mi NE 6.9 mph - N/A   Mostly Cloudy
9:55 PM 69.8 °F 55.4 °F 60% 30.14 in 10.0 mi NE 5.8 mph - N/A   Scattered Clouds
10:15 PM 69.8 °F 55.4 °F 60% 30.14 in 10.0 mi Calm Calm - N/A   Clear
10:55 PM 68.0 °F 57.2 °F 68% 30.14 in 10.0 mi West 5.8 mph - N/A Thunderstorm Mostly Cloudy
11:15 PM 69.8 °F 57.2 °F 64% 30.14 in 10.0 mi NW 4.6 mph - N/A Thunderstorm Mostly Cloudy
11:35 PM 69.8 °F 55.4 °F 60% 30.13 in 10.0 mi WNW 5.8 mph - N/A   Partly Cloudy
11:55 PM 69.8 °F 55.4 °F 60% 30.12 in 10.0 mi Calm Calm - N/A   Clear